Flag for France Weather past 2 weeks in Amsterdam Island, French Southern Territories, France

Now
46 °F

Cool.


Feels Like: 38 °F
Forecast: 52 / 57 °F
Wind: 21 mph from Southwest

Location: Martin De Vivies Ile Amsterdam

Current Time: Jul 24, 2014 at 8:56:20 PM

Latest Report: Jul 24, 2014 at 8:00 PM


Visibility: N/A

Pressure: 30.15 "Hg

Humidity: 63%

Dew point: 34 °F

Location of Amsterdam IslandLocation

Historic Weather in Amsterdam Island — Graph

°F

Amsterdam Island temperature yesterday

Maximum temperature yesterday: 58 °F (at 5:00 AM)
Minimum temperature yesterday: 47 °F (at 11:00 PM)
Average temperature yesterday: 51 °F

Past Weeks' High & Low Weather Summary

 TemperatureHumidityPressure
High61 °F (Jul 10, 11:00 PM)98% (Jul 20, 4:00 PM)30.35 "Hg (Jul 20, 4:00 PM)
Low42 °F (Jul 24, 12:00 PM)54% (Jul 12, 3:00 PM)29.26 "Hg (Jul 11, 2:00 AM)
Average55 °F82%30.00 "Hg
* Reported Jul 9 7:00 PM — Jul 24 7:00 PM, Amsterdam Island, Weather by CustomWeather, © 2014

Note: Actual official high and low records may vary slightly from our data, if they occured in-between our weather recording intervals... More about our weather records

Advertising

Amsterdam Island weather history for previous 24 hours

 ConditionsComfort  
Time TempWeatherWind HumidityBarometerVisibility
7:00 PM
Jul 24
45 °FCool.20 mph72%30.13 "HgN/A
6:00 PM43 °FQuite cool.23 mph75%30.10 "HgN/A
5:00 PM43 °FQuite cool.29 mph72%30.08 "HgN/A
4:00 PM43 °FQuite cool.29 mph74%30.06 "HgN/A
3:00 PM45 °FCool.26 mph69%30.04 "HgN/A
2:00 PM47 °FCool.26 mph54%30.01 "HgN/A
1:00 PM47 °FCool.28 mph54%29.99 "HgN/A
12:00 PM42 °FQuite cool.26 mph81%29.97 "HgN/A
11:00 AM43 °FQuite cool.30 mph79%29.96 "HgN/A
10:00 AM46 °FCool.21 mph81%29.93 "HgN/A
9:00 AM43 °FQuite cool.22 mph78%29.89 "HgN/A
8:00 AM44 °FQuite cool.21 mph73%29.85 "HgN/A
7:00 AM45 °FQuite cool.18 mph77%29.81 "HgN/A
6:00 AM43 °FQuite cool.22 mph87%29.79 "HgN/A
5:00 AM43 °FQuite cool.18 mph88%29.77 "HgN/A
4:00 AM45 °FCool.15 mph86%29.76 "HgN/A
3:00 AM42 °FQuite cool.14 mph88%29.78 "HgN/A
1:00 AM47 °FCool.14 mph56%29.76 "HgN/A
12:00 AM48 °FCool.15 mph63%29.77 "HgN/A
11:00 PM
Jul 23
47 °FCool.17 mph66%29.77 "HgN/A
10:00 PM49 °FCool.21 mph62%29.76 "HgN/A
9:00 PM48 °FCool.24 mph65%29.74 "HgN/A
8:00 PM50 °FCool.24 mph69%29.72 "HgN/A
Weather by CustomWeather, © 2014

See weather overviewHow to use our weather pages